AirNav   Air Wisconsin Up To $57,000 Bonus
 
 1032 users online  

36AK Flyway Farm Airstrip
Wasilla, Alaska, USA

GOING TO WASILLA?


FAA INFORMATION EFFECTIVE 22 APRIL 2021

Location

FAA Identifier: 36AK
Lat/Long: 61-20-36.0200N 150-03-59.8700W
61-20.600333N 150-03.997833W
61.3433389,-150.0666306
(estimated)
Elevation: 150 ft. / 46 m (estimated)
Variation: 22E (2000)
From city: 25 miles SW of WASILLA, AK
Time zone: UTC -8 (UTC -9 during Standard Time)
Zip code: 99687

Airport Operations

Airport use: Private use. Permission required prior to landing
Activation date: 07/2002
Control tower: no
ARTCC: ANCHORAGE CENTER
FSS: KENAI FLIGHT SERVICE STATION [907-283-7211]
Attendance: UNATNDD
Wind indicator: yes
Segmented circle: no

Airport Communications

CTAF: 122.9
WX ASOS at LHD (10 nm S): PHONE 907-245-5432
WX ASOS at MRI (10 nm SE): 124.25 (907-271-5277)
WX ASOS at ANC (10 nm S): PHONE 907-271-5278
WX ASOS at FRN (13 nm E): 134.25
WX AWOS-3P at BCV (17 nm E): 135.55 (907-688-0826)

Nearby radio navigation aids

VOR radial/distance  VOR name  Freq  Var
TEDr326/11.0ANCHORAGE VOR/DME113.1518E
BGQr173/13.9BIG LAKE VORTAC112.5019E

Airport Services

Runway Information

Runway 18/36

Dimensions: 2000 x 75 ft. / 610 x 23 m
Surface: turf
Runway edge markings: RY OUTLINED WITH ORANGE CONES
RUNWAY 18  RUNWAY 36
Traffic pattern: leftleft

Runway 9/27

Dimensions: 1300 x 75 ft. / 396 x 23 m
Surface: turf
Runway edge markings: RY OUTLINED WITH ORANGE CONES
RUNWAY 9  RUNWAY 27
Traffic pattern: leftleft

Runway 17W/35W

Dimensions: 2100 x 100 ft. / 640 x 30 m
Surface: water
RUNWAY 17W  RUNWAY 35W
Traffic pattern: leftleft

Airport Ownership and Management from official FAA records

Ownership: Privately-owned
Owner: FLYWAY FARM, LLC
2825 ILLIAMNA AVE
ANCHORAGE, AK 99517
Phone 907-204-8907
Manager: DEE HANSON
4125 PTARMIGAN TERRACE
ANCHORAGE, AK 99516
Phone (907) 440-6488

Airport Operational Statistics

Aircraft based on the field: 3
Single engine airplanes: 3
    

Instrument Procedures

There are no published instrument procedures at 36AK.

Some nearby airports with instrument procedures:

PAED - Elmendorf Air Force Base (9 nm SE)
PAMR - Merrill Field Airport (10 nm SE)
PANC - Ted Stevens Anchorage International Airport (10 nm S)
PAFR - Bryant Army Airfield Heliport (13 nm E)
PAGQ - Big Lake Airport (14 nm NE)
 
Loc | Ops | Rwys | IFR | FBO | Links
Com | Nav | Svcs | Stats | Notes

Crowley
 
Area around 36AK (Flyway Farm Airstrip)
 
Road maps at: MapQuest Bing Google
 
Aerial photo
No photo
 
Sectional chart

 
Airport distance calculator
Flying to Flyway Farm Airstrip? Find the distance to fly.

From to 36AK

Sunrise and sunset
Times for 13-May-2021
 Local
(UTC-8)
 Zulu
(UTC)
Morning civil twilight04:0912:09
Sunrise05:1713:17
Sunset22:3606:36
Evening civil twilight23:4507:45

Current date and time
Zulu (UTC)  13-May-2021 12:23:14
Local (UTC-8)  13-May-2021 04:23:14
 
METAR
PAED 
10nm SE 
131156Z 00000KT 10SM BKN050 BKN075 07/01 A3015 RMK AO2A SLP206 60000 T00680013 10106 20066 52006 $
PAMR 
10nm SE 
131153Z 21004KT 10SM BKN060 BKN095 07/M01 A3015 RMK AO2 SLP211 60000 T00721006 10106 20072 51005 $
PALH 
10nm S 
131153Z 19006KT 10SM OVC055 07/01 A3016 RMK AO2 SLP214 T00670006 10094 20067 53006
PANC 
11nm S 
131153Z 16007KT 10SM BKN060 BKN090 07/00 A3015 RMK AO2 SLP211 T00670000 10094 20067 53005 $
PAFR 
13nm E 
131158Z AUTO 00000KT 10SM FEW036 BKN049 OVC060 07/01 A3012 RMK AO2 SLP207 T00660009 10093 20056 52006 PNO $
PABV 
16nm E 
131156Z AUTO 12003KT 10SM OVC050 07/01 A3016 RMK AO2 SLP220 T00720011 10111 20072 51003
TAF
PAED 
10nm SE 
131000Z 1310/1416 VRB06KT 9999 BKN040 BKN080 QNH3014INS BECMG 1315/1316 02009KT 9999 SCT045 BKN100 QNH3013INS BECMG 1319/1320 25009KT 9999 SCT060 SCT120 QNH3001INS BECMG 1406/1407 VRB05KT 9999 SCT060 QNH2999INS TX15/1400Z TN05/1314Z
PANC 
11nm S 
130526Z 1306/1412 17009KT P6SM SCT060 BKN080 BKN120 FM131900 30005KT P6SM SCT050 BKN080 BKN200
NOTAMs
Click for the latest NOTAMs
NOTAMs are issued by the DoD/FAA and will open in a separate window not controlled by AirNav.

 

 
 

Would you like to see your business listed on this page?

 If your business provides an interesting product or service to pilots, flight crews, aircraft, or users of the Flyway Farm Airstrip, you should consider listing it here.  To start the listing process, click on the button below
 
Add a business
 

Other Pages about Flyway Farm Airstrip

Update a link
 
Copyright © AirNav, LLC. All rights reserved. Privacy Policy  Contact